Location: Eschertshofen
(49.3064°N, 11.5756°E)
Time: 18:33:40
(UTC+00:00)

Spot 2 Rocket - Pass Details

Date: 28 June 2021
Orbit: 757 x 772 km, 98.5° (Epoch: 01 August)

Event Time Altitude Azimuth Distance (km) Brightness Sun altitude
Exits shadow 22:10:15 - 225° (SW) 3,032 6.3 -15.9°
Reaches altitude 10° 22:13:30 10° 252° (WSW) 2,307 5.9 -16.1°
Maximum altitude 22:15:27 12° 275° (W) 2,168 6.1 -16.2°
Drops below altitude 10° 22:17:25 10° 297° (WNW) 2,317 6.6 -16.3°
Sets 22:21:22 0° 328° (NNW) 3,254 8.2 -16.4°
